Snowfall_Accumulation
0.9 2.1 2.9 0.4 0.4 1.4 1.2 1.9 0.9 0.0 0.0 0.0 0.0 0.0 0.0 0.0 0.0 0.0 0.0 0.0 0.0 0.0 0.0 0.0 0.0 0.0 0.0 0.0 0.0 0.0 0.0 0.0 0.0 0.0 0.0 0.0 0.0 0.0 0.0 0.0 0.0 0.0 0.0 0.0
2.2 5.1 0.0 0.0 0.0 1.4 1.9 1.9 0.9 0.0 0.0 0.0 0.0 0.0 0.0 0.0 0.0 0.0 0.0 0.0 0.0 0.0 0.0 0.0 0.0 0.0 0.0 0.0 0.0 0.0 0.0 0.0 0.0 0.0 0.0 0.0 0.0 0.0 0.0 0.0 0.0 0.0 0.0 0.0
3.6 0.1 0.0 0.0 0.7 4.2 2.2 1.9 0.9 0.5 0.0 0.0 0.0 0.3 0.0 0.0 0.0 0.0 0.0 0.0 0.0 0.0 0.0 0.0 0.0 0.0 0.0 0.0 0.0 0.0 0.0 0.0 0.0 0.0 0.0 0.0 0.0 0.0 0.0 0.0 0.0 0.0 0.0 0.0
1.1 0.0 0.3 1.2 3.5 2.2 5.1 0.5 0.9 1.0 7.6 9.9 0.0 6.2 0.0 0.0 0.0 0.0 0.0 0.0 0.0 0.0 0.0 0.0 0.0 0.0 0.0 0.0 0.0 0.0 0.0 0.0 0.0 0.0 0.0 0.0 0.0 0.0 0.0 0.0 0.0 0.0 0.0 0.0
3.6 0.0 0.2 6.5 2.3 2.3 5.2 1.9 0.7 1.7 7.4 6.3 1.6 7.9 1.7 0.0 0.0 0.0 0.0 0.0 0.0 0.0 0.0 0.0 0.0 0.0 0.0 0.0 0.0 0.0 0.0 0.0 0.0 0.0 0.0 0.0 0.0 0.0 0.0 0.0 0.0 0.0 0.0 0.0
0.3 0.0 1.0 2.7 0.3 1.9 0.2 1.2 1.3 3.9 8.9 21.2 1.2 3.7 5.7 1.0 0.0 0.0 0.0 0.0 0.0 0.0 0.0 0.0 0.0 0.0 0.0 0.0 0.0 0.0 0.0 0.0 0.0 0.0 0.0 0.0 0.0 0.0 0.0 0.0 0.0 0.0 0.0 0.0
3.9 5.6 1.2 0.9 4.9 1.0 7.4 9.4 40.5 51.5 38.9 13.7 3.9 7.2 3.0 0.6 0.0 0.0 0.0 0.0 0.0 0.0 0.0 0.0 0.0 0.0 0.0 0.0 0.0 0.0 0.0 0.0 0.0 0.0 0.0 0.0 0.0 0.0 0.0 0.0 0.0 0.0 0.0 0.0
19.7 24.2 11.7 6.0 7.2 12.0 11.8 13.1 21.0 20.6 14.5 5.8 1.9 6.9 5.4 0.0 0.0 0.0 0.0 0.0 0.0 0.0 0.0 0.0 0.0 0.0 0.0 0.0 0.0 0.0 0.0 0.0 0.0 0.0 0.0 0.0 0.0 0.0 0.0 0.0 0.0 0.0 0.0 0.0
11.2 15.3 3.7 4.0 4.0 4.0 8.5 20.7 7.9 8.6 3.9 4.7 7.0 8.8 0.1 0.0 0.0 0.0 0.0 0.0 0.0 0.0 0.0 0.0 0.0 0.0 0.0 0.0 0.0 0.0 0.0 0.0 0.0 0.0 0.0 0.0 0.0 0.0 0.0 0.0 0.0 0.0 0.0 0.0
7.6 13.6 4.7 2.1 3.2 4.8 9.1 9.4 19.8 26.4 19.5 17.6 13.7 9.6 15.7 6.5 6.2 0.5 0.4 0.7 0.0 0.0 0.0 0.0 0.0 0.0 0.0 0.0 0.0 0.0 0.0 0.0 0.0 0.0 0.0 0.0 0.0 0.0 0.0 0.0 0.0 0.0 0.0 0.0
1.5 11.9 8.9 3.5 14.0 17.2 13.7 19.6 19.2 16.3 12.7 7.9 12.1 24.2 11.8 9.8 5.9 4.2 3.6 0.3 0.0 0.0 0.0 0.0 0.0 0.0 0.0 0.0 0.0 0.0 0.0 0.0 0.0 0.0 0.0 0.0 0.0 0.0 0.0 0.0 0.0 0.0 0.0 0.0
0.3 8.8 16.7 13.9 8.1 6.5 10.1 13.9 14.0 29.2 22.8 14.2 12.4 16.1 4.5 1.8 1.1 4.6 2.4 0.0 0.0 0.0 0.0 0.0 0.0 0.0 0.0 0.0 0.0 0.0 0.0 0.0 0.0 0.0 0.0 0.0 0.0 0.0 0.0 0.0 0.0 0.0 0.0 0.0
0.1 5.7 15.4 15.3 8.7 2.2 9.7 10.7 11.8 12.6 16.8 29.2 25.6 21.4 3.8 1.7 1.4 1.0 3.4 0.5 0.2 0.0 0.0 0.0 0.0 0.0 0.0 0.0 0.0 0.0 0.0 0.0 0.0 0.0 0.0 0.0 0.0 0.0 0.0 0.0 0.0 0.0 0.0 0.0
0.1 3.3 9.2 12.2 10.0 5.8 10.6 5.4 9.7 18.3 27.3 20.3 23.9 14.5 5.4 2.4 2.9 4.3 2.9 0.7 0.4 0.2 0.0 0.0 0.0 0.0 0.0 0.0 0.0 0.0 0.0 0.0 0.0 0.0 0.0 0.0 0.0 0.0 0.0 0.0 0.0 0.0 0.0 0.0
0.6 10.7 3.6 3.9 1.4 1.2 3.3 5.0 6.8 16.4 15.0 16.1 13.9 10.0 8.9 4.6 2.4 4.3 0.5 0.4 0.3 0.2 0.1 0.1 0.0 0.0 0.0 0.0 0.0 0.0 0.0 0.0 0.0 0.0 0.0 0.0 0.0 0.0 0.0 0.0 0.0 0.0 0.0 0.0
0.3 6.7 4.1 4.3 0.0 0.7 2.7 0.7 2.2 4.1 8.0 8.8 6.0 7.4 5.4 3.2 1.5 0.9 0.6 0.3 0.4 0.5 0.3 0.2 0.0 0.0 0.0 0.0 0.0 0.0 0.0 0.0 0.0 0.0 0.0 0.0 0.0 0.0 0.0 0.0 0.0 0.0 0.0 0.0
0.2 3.6 5.0 6.7 0.8 0.3 3.0 2.6 1.5 4.0 4.4 5.3 8.0 6.9 3.2 3.2 3.1 2.5 1.4 0.8 0.6 0.7 0.6 0.2 0.0 0.0 0.0 0.0 0.0 0.0 0.0 0.0 0.0 0.0 0.0 0.0 0.0 0.0 0.0 0.0 0.0 0.0 0.0 0.0
0.5 2.4 6.2 6.8 1.3 7.5 0.9 0.0 0.6 1.2 1.6 1.8 2.2 2.7 2.4 2.4 3.0 2.6 1.9 1.7 1.0 0.6 0.5 0.4 0.1 0.0 0.0 0.0 0.0 0.0 0.0 0.0 0.0 0.0 0.0 0.1 0.1 0.0 0.0 0.0 1.2 2.0 0.6 1.9
0.7 4.9 13.6 11.5 4.6 1.3 0.3 0.3 0.8 2.2 1.9 0.3 0.8 0.6 0.7 1.1 1.4 2.3 0.3 0.3 0.6 0.8 0.5 0.3 0.2 0.0 0.0 0.0 0.0 0.0 0.0 0.0 0.0 0.0 0.0 0.0 0.0 0.0 0.3 2.3 2.9 1.9 2.0 4.7
0.6 3.1 7.3 5.9 7.4 2.2 2.0 0.0 0.0 0.1 1.8 0.0 0.1 0.2 0.2 0.0 1.9 1.1 0.3 0.2 0.1 0.1 0.0 0.2 0.0 0.0 0.0 0.0 0.0 0.0 0.0 0.0 1.2 0.0 0.5 0.1 0.0 0.0 1.4 2.0 1.9 5.2 4.2 4.0
0.7 3.6 8.8 4.7 6.1 2.1 0.2 0.0 0.0 2.1 0.4 0.0 0.2 0.3 0.5 1.3 1.3 0.0 0.0 0.0 0.0 0.0 0.0 0.0 0.0 0.0 0.0 0.0 0.0 0.0 0.0 2.5 4.1 0.0 1.5 1.5 1.2 1.5 2.5 4.6 4.2 3.6 2.7 2.1
5.7 8.3 4.3 2.3 4.5 3.4 0.4 1.0 4.8 3.5 1.8 0.3 0.9 0.5 1.2 0.2 0.0 0.0 0.0 0.0 0.0 0.0 0.0 0.0 1.0 1.6 0.0 0.1 0.0 2.2 3.0 1.8 2.9 1.8 3.1 3.5 2.7 1.9 1.9 1.7 1.0 0.5 0.0 0.0
9.0 9.2 10.5 7.5 3.5 2.1 2.9 9.1 7.7 8.5 9.4 4.0 4.7 1.8 2.1 1.4 0.5 0.0 0.4 0.5 0.0 0.3 0.0 0.0 0.0 0.0 0.0 0.5 0.1 1.5 1.2 0.5 1.1 0.7 0.5 0.8 0.1 0.0 0.0 0.0 0.0 0.0 0.0 0.0
1.4 3.1 8.2 9.9 5.2 6.1 8.3 8.3 7.6 8.6 9.9 8.1 7.0 4.4 2.6 2.7 1.2 0.5 0.9 0.7 0.5 0.9 0.7 0.2 0.1 0.1 0.0 0.1 0.0 0.0 0.0 0.0 0.0 0.0 0.0 0.0 0.0 0.0 0.0 0.0 0.0 0.0 0.0 0.0
6.3 4.0 5.6 5.9 9.3 8.7 3.6 8.3 11.0 9.5 7.2 9.4 7.7 7.6 5.8 3.9 5.0 4.2 3.8 4.1 4.1 3.6 2.7 1.5 1.4 1.1 0.6 0.1 0.0 0.1 0.0 0.0 0.0 0.0 0.0 0.0 0.0 0.0 0.0 0.0 0.0 0.0 0.0 0.0
17.4 21.2 21.5 15.2 16.1 22.7 19.5 16.1 12.3 11.7 15.3 18.0 13.1 9.8 9.2 9.6 11.4 7.8 6.6 6.9 8.3 6.5 4.9 3.5 3.1 1.0 2.1 1.2 1.0 0.8 0.4 0.4 0.2 0.0 0.0 0.0 0.0 0.0 0.0 0.0 0.0 0.0 0.0 0.0